Location: Arrien
(42.8963°N, 1.0429°E)
Time: 09:41:18
(UTC+00:00)

SL-08 R/B - Pass Details

Date: 11 December 2025
Orbit: 946 x 992 km, 83.0° (Epoch: 21 January)

Event Time Altitude Azimuth Distance (km) Brightness Sun altitude
Rises 18:39:31 0° 352° (N) 3,706 7.5 -24.4°
Reaches altitude 10° 18:42:02 10° 353° (N) 2,758 6.8 -24.9°
Maximum altitude 18:48:24 89° 79° (E) 998 4.4 -26.0°
Drops below altitude 10° 18:54:44 10° 174° (S) 2,745 6.8 -27.2°
Sets 18:57:14 0° 174° (S) 3,688 7.5 -27.6°
